Weather in Agia Triada

Greece     40°29′55″N   22°52′46″E
temp.,
°C
wind,
m/s
gust,
m/s
humid.,
%
clouds,
%
prec.,
mm/h
press.,
hPa
HPBL,
m
18 may, tue
tue1800:00+19ese11595 0.0 100711
03:00+17nw22692 0.0 100728
06:00+17nnw11713 0.0 100720
09:00+21nnw35522 0.0 1009404
12:00+24nw68410 0.0 10101338
15:00+24n793927 0.0 10101269
18:00+24n89344 0.0 10111109
21:00+20ne353915 0.0 101291
19 may, wed
wed1900:00+18s114517 0.0 101312
03:00+16ne11440 0.0 101423
06:00+15ene11533 0.0 101327
09:00+19ssw12500 0.0 1014409
12:00+23s454899 0.0 10131008
15:00+24s554898 0.0 1011949
18:00+24sse45487 0.0 1010563
21:00+19sse34663 0.0 1009100
20 may, thu
thu2000:00+18wnw00635 0.0 100920
03:00+17nw22805 0.0 100838
06:00+16nnw23820 0.0 100846
09:00+21nnw46485 0.0 1009684
12:00+23nw463799 0.0 10091348
15:00+23n9739100 0.0 10091101
18:00+20nnw91044100 0.0 1009724
21:00+17n5953100 0.0 1011397
21 may, fri
fri2100:00+16nnw7135570 0.1 1012815
03:00+15nnw91354100 0.1 1012947
06:00+14nnw10155298 0.0 10131131
09:00+15nnw11135347 0.0 10141300
12:00+17nnw12144834 0.0 10141543
15:00+19nnw12144017 0.0 10132082
18:00+20nnw1215374 0.0 10142143
21:00+18nnw813461 0.0 1015925
22 may, sat
sat2200:00+15nnw35562 0.0 1016136
03:00+13n35590 0.0 1016113
06:00+13n35620 0.0 1016118
09:00+17nnw46490 0.0 1017493
12:00+22nw55340 0.0 10161126
15:00+24w44270 0.0 10151304
18:00+24sw32280 0.0 1014864
21:00+17sse46570 0.0 1016172